Погода в Зарка-Маине

Иордания     31°34′02″N   35°38′11″E
темп.,
°C
ветер,
м/с
пор.,
м/с
влажн.,
%
обл.,
%
осадки,
мм/ч
давл.,
гПа
погр.,
м
10 августа, ср
ср1000:00+24зсз45440 0.0 1008191
03:00+22з34500 0.0 1008102
06:00+21зсз22640 0.0 100847
09:00+25зсз44500 0.0 1009606
12:00+29зсз55330 0.0 1008870
15:00+31зсз56310 0.0 1006990
18:00+30зсз56340 0.0 1006994
21:00+25зсз45570 0.0 1007566
11 августа, чт
чт1100:00+23зсз34660 0.0 1007161
03:00+22з34700 0.0 100794
06:00+21з22780 0.0 100820
09:00+25зсз33580 0.0 1009620
12:00+30зсз44320 0.0 1008964
15:00+32зсз45300 0.0 10061029
18:00+31сз44320 0.0 1006950
21:00+27зсз33450 0.0 1007206
12 августа, пт
пт1200:00+25з11520 0.0 100828
03:00+23юз11460 0.0 100811
06:00+22з11470 0.0 100811
09:00+27з33300 0.0 1008529
12:00+31зсз43240 0.0 1008828
15:00+34зсз44210 0.0 1006981
18:00+33сз44240 0.0 1006916
21:00+28зсз33370 0.0 1008123
13 августа, сб
сб1300:00+25з22400 0.0 100846
03:00+24зюз33400 0.0 100827
06:00+22зюз22540 0.0 100919
09:00+25з44390 0.0 1009491
12:00+29з55260 0.0 1008757
15:00+32з56250 0.0 1007902
18:00+30зсз56270 0.0 1006790
21:00+26зсз34450 0.0 1007149
14 августа, вс
вс1400:00+23з33610 0.0 100897
03:00+22з44690 0.0 100798
06:00+20з23810 0.0 100846
09:00+24з44560 0.0 1008515
12:00+29зсз55360 0.0 1008807
15:00+32зсз55320 0.0 1006962
18:00+31зсз45340 0.0 1005853
21:00+26зсз33500 0.0 1007140